Nasa Shuttle, FL

3:16 AM EDT on March 29, 2017 (GMT -0400)
Nasa Shuttle

Weather History for KTTS - December, 2013

Change the Weather History Date:

Wednesday, December 18, 2013

  Actual Average Record
Temperature  
Mean Temperature 54 °F -  
Max Temperature 66 °F 68 °F 84 °F (2016)
Min Temperature 43 °F 51 °F 39 °F (2003)
Degree Days  
Heating Degree Days 10    
Growing Degree Days 4 (Base 50)    
Moisture  
Dew Point 46 °F    
Average Humidity 78    
Maximum Humidity 97    
Minimum Humidity 51    
Precipitation  
Precipitation 0.00 in - - ()
Sea Level Pressure  
Sea Level Pressure 30.26 in    
Wind  
Wind Speed 6 mph (North)    
Max Wind Speed 12 mph    
Max Gust Speed 17 mph    
Visibility 10 miles    
Events      
Averages and records for this station are not official NWS values.
T = Trace of Precipitation, MM = Missing Value Source: NWS Daily Summary

Daily Weather History Graph

Daily Weather History Graph

Search for Another Location

Airport or City:

Trip Planner

Search our weather history database for the weather conditions in past years. The results will help you decide how hot, cold, wet, or windy it might be!

Date:

Astronomy

Dec. 18, 2013 Rise Set
Actual Time 7:09 AM EST 5:29 PM EST
Civil Twilight 6:43 AM EST 5:55 PM EST
Nautical Twilight 6:14 AM EST 6:24 PM EST
Astronomical Twilight 5:45 AM EST 6:53 PM EST
Moon 6:53 PM EST (12/18) 7:54 AM EST (12/18)
Length of Visible Light 11h 11m
Length of Day
10h 19m
Full, 98% of the Moon is Illuminated
Dec 18
Full
Dec 25
Last Quarter
Jan 1
New
Jan 7
First Quarter
Jan 15
Full

Hourly Weather History & Observations

Time (EST) Temp. Windchill Dew Point Humidity Pressure Visibility Wind Dir Wind Speed Gust Speed Precip Events Conditions
12:58 AM 49.6 °F - 48.6 °F 96% 30.21 in 10.0 mi NNW 3.5 mph - N/A   Clear
1:58 AM 50.0 °F - 49.1 °F 97% 30.21 in 10.0 mi NW 3.5 mph - N/A   Clear
2:58 AM 49.5 °F - 47.1 °F 92% 30.20 in 10.0 mi NNW 5.8 mph - N/A   Clear
3:58 AM 47.5 °F - 44.4 °F 89% 30.22 in 10.0 mi NW 3.5 mph - N/A   Clear
4:58 AM 47.1 °F - 44.4 °F 90% 30.22 in 10.0 mi NW 3.5 mph - N/A   Clear
5:58 AM 44.8 °F 42.4 °F 42.4 °F 91% 30.24 in 10.0 mi NNW 4.6 mph - N/A   Clear
6:58 AM 46.4 °F 42.9 °F 42.3 °F 85% 30.26 in 10.0 mi NNW 6.9 mph - N/A   Clear
7:58 AM 48.7 °F - 43.0 °F 80% 30.27 in 10.0 mi North 8.1 mph - N/A   Clear
8:58 AM 55.6 °F - 44.8 °F 67% 30.28 in 10.0 mi NNW 5.8 mph - N/A   Clear
9:58 AM 61.7 °F - 43.3 °F 51% 30.29 in 10.0 mi North 9.2 mph - N/A   Clear
10:58 AM 63.7 °F - 48.4 °F 57% 30.30 in 10.0 mi North 10.4 mph - N/A   Clear
11:58 AM 65.5 °F - 51.1 °F 60% 30.28 in 10.0 mi North 10.4 mph - N/A   Clear
12:58 PM 66.6 °F - 51.6 °F 59% 30.26 in 10.0 mi North 11.5 mph - N/A   Clear
1:55 PM 66.4 °F - 52.5 °F 61% 30.25 in 10.0 mi North 9.2 mph - N/A   Clear
2:58 PM 65.1 °F - 50.2 °F 58% 30.24 in 10.0 mi NNE 10.4 mph 17.3 mph N/A   Clear
3:58 PM 63.9 °F - 48.0 °F 56% 30.25 in 10.0 mi North 8.1 mph - N/A   Clear
4:58 PM 61.3 °F - 48.0 °F 62% 30.25 in 10.0 mi NNE 4.6 mph - N/A   Clear
5:58 PM 55.8 °F - 47.5 °F 74% 30.25 in 10.0 mi NNE 5.8 mph - N/A   Clear
6:58 PM 49.3 °F - 46.4 °F 90% 30.26 in 10.0 mi NNE 3.5 mph - N/A   Clear
7:58 PM 48.6 °F - 45.5 °F 89% 30.28 in 10.0 mi NNE 5.8 mph - N/A   Clear
8:58 PM 46.9 °F - 44.8 °F 92% 30.28 in 10.0 mi NNE 5.8 mph - N/A   Clear
9:58 PM 45.5 °F 41.8 °F 43.3 °F 92% 30.28 in 10.0 mi NNE 6.9 mph - N/A   Clear
10:58 PM 43.5 °F 41.9 °F 41.2 °F 91% 30.29 in 10.0 mi North 3.5 mph - N/A   Clear
11:58 PM 43.5 °F 40.9 °F 40.6 °F 90% 30.29 in 10.0 mi NNE 4.6 mph - N/A   Clear